weather.gov     
National Weather Service

Terminal Aerodrome Forecast
NWS Homepage
This page is being discontinued on March 12, 2014.
The same data is available at this site. Please update your bookmarks.
Thank you, and we apologize for the inconvenience.
Please send an email to SR-SRH.Webmaster@noaa.gov with any concerns.


Current Version
Previous Version:    01  02  03  04  05  06  07  08  09  10  11  12  13  14  15  16  17  18  19  20  21  22  23  24  25  26  27  28  29  30  
   31  
[Printable]
466
FTUS43 KSGF 021500 AAB
TAFBBG
TAF AMD
KBBG 021539Z 0216/0312 23006KT P6SM -TSRA FEW040CB OVC110
     FM021630 20006KT P6SM VCSH SCT015 BKN070
     FM021900 18006KT P6SM SCT040 SCT100
     FM022300 15005KT P6SM SCT120
     FM030700 14005KT P6SM SCT060 BKN100=


U.S. Dept. of Commerce
NOAA National Weather Service
1325 East West Highway
Silver Spring, MD 20910
E-mail: w-nws.webmaster@noaa.gov
Page last modified: May 16, 2007
NATIONAL WEATHER SERVICE: for Safety, for Work, for Fun - FOR LIFE